PDT,Max TemperatureF,Mean TemperatureF,Min TemperatureF,Max Dew PointF,MeanDew PointF,Min DewpointF,Max Humidity, Mean Humidity, Min Humidity, Max Sea Level PressureIn, Mean Sea Level PressureIn, Min Sea Level PressureIn, Max VisibilityMiles, Mean VisibilityMiles, Min VisibilityMiles, Max Wind SpeedMPH, Mean Wind SpeedMPH, Max Gust SpeedMPH,PrecipitationIn, CloudCover, Events, WindDirDegrees
2013-3-1,62,42,23,32,27,21,93,58,24,30.53,30.46,30.38,10,10,10,12,4,17,0.00,0,,75
2013-3-2,62,45,28,28,24,19,86,48,19,30.40,30.26,30.13,10,10,10,23,4,29,0.00,2,,253
2013-3-3,46,40,33,37,35,27,93,80,46,30.14,30.08,30.03,10,9,4,12,6,,0.06,6,Rain,306
2013-3-4,55,40,24,36,30,23,100,72,35,30.15,30.08,30.03,10,10,10,13,5,17,0.00,1,,31
2013-3-5,55,45,35,30,25,19,75,46,29,30.04,29.89,29.73,10,10,10,29,12,38,0.00,2,,226
2013-3-6,42,34,26,30,21,14,93,59,39,29.96,29.85,29.69,10,9,0,43,24,60,0.00,2,Rain-Snow,243
2013-3-7,35,28,23,23,20,16,86,73,52,29.95,29.93,29.92,10,10,10,13,4,16,0.00,6,,37
2013-3-8,,,,,,,,,,,,,,,,,,,,,,
2013-3-9,,,,,,,,,,,,,,,,,,,,,,
2013-3-9,,,,,,,,,,,,,,,,,,,,,,
2013-3-11,,,,,,,,,,,,,,,,,,,,,,
2013-3-12,68,54,39,21,17,12,42,23,12,30.29,30.24,30.19,10,10,2,9,4,,0.00,0,,108
2013-3-13,71,50,30,28,22,10,75,39,9,30.32,30.27,30.22,10,10,9,15,4,20,0.00,0,,303
2013-3-14,71,53,35,28,24,16,65,38,12,30.27,30.25,30.21,10,10,10,21,5,29,0.00,0,,275
2013-3-15,66,50,35,27,20,9,56,33,11,30.24,30.17,30.11,10,10,10,18,7,23,0.00,0,,321
2013-3-16,64,45,26,27,22,10,75,42,13,30.16,30.09,30.01,10,10,10,28,7,39,0.00,0,,289
2013-3-17,59,44,28,25,15,5,60,33,12,30.13,30.08,30.04,10,10,10,23,7,36,0.00,0,,313
2013-3-18,59,41,23,25,18,7,74,40,13,30.15,30.10,30.04,10,10,10,17,6,28,0.00,2,,294
2013-3-19,57,48,39,32,30,25,65,52,33,30.17,30.12,30.06,10,10,10,23,8,28,0.00,7,,252
2013-3-20,53,46,39,32,32,27,75,57,41,30.05,30.00,29.96,10,10,9,43,18,52,0.00,2,Rain,260
2013-3-21,53,42,30,28,21,5,87,48,24,30.10,30.05,30.00,10,10,10,22,11,33,0.00,0,,355
2013-3-22,46,30,14,12,6,-4,68,36,12,30.16,30.09,30.04,10,10,10,20,9,25,0.00,0,,346
2013-3-23,53,34,14,9,6,0,67,36,15,30.22,30.15,30.05,10,10,10,13,5,16,0.00,0,,60
2013-3-24,62,40,17,27,14,3,63,36,20,30.16,30.09,30.00,10,10,10,17,4,22,0.00,0,,303
2013-3-25,64,44,24,25,17,0,74,37,8,30.06,30.00,29.93,10,10,10,21,7,25,0.00,1,,252
2013-3-26,57,47,37,32,27,19,61,45,31,30.00,29.95,29.93,10,10,10,22,11,30,0.00,4,,258
2013-3-27,59,44,30,34,28,25,81,54,27,30.03,29.99,29.95,10,10,10,21,10,30,0.00,3,,287
2013-3-28,57,47,37,39,32,25,81,58,29,30.19,30.09,30.02,10,10,8,22,8,29,0.00,5,Rain,270
2013-3-29,64,45,26,36,29,23,100,57,22,30.24,30.20,30.14,10,10,10,20,4,29,0.00,1,Rain,27
2013-3-30,68,50,32,37,28,23,75,46,19,30.21,30.14,30.02,10,10,10,17,6,28,0.00,2,Rain,182
2013-3-31,51,45,39,39,34,28,87,64,41,30.12,30.04,29.99,10,10,5,26,12,31,0.07,5,Rain,287